Tracking 33068 objects as of 24-Jan-2026
HD Live streaming from Space Station
objects crossing your sky now

STARLINK-11655

Track STARLINK-11655 now!
10-day predictions
STARLINK-11655 is classified as:


NORAD ID: 63675
Int'l Code: 2025-085M
Perigee: 362.4 km
Apogee: 364.5 km
Inclination: 43.0 °
Period: 91.7 minutes
Semi major axis: 6734 km
RCS: Unknown
Launch date: April 28, 2025
Source: United States (US)
Launch site: AIR FORCE EASTERN TEST RANGE (AFETR)
Your satellite tracking list
Your tracking list is empty




NASA's NSSDC Master Catalog

Two Line Element Set (TLE):
1 63675U 25085M   26024.49633653  .00254970  00000-0  19250-2 0  9996
2 63675  42.9987 184.5921 0001575 279.4124  80.6566 15.70903887 43292
Source of the keplerian elements: AFSPC